This is the latest recevied weather packets stored in our database for station/object ED1YCC-10. If no packets are shown the sender has not sent any weather packets the latest 10 day(s).
| Time | Temp. | Humidity | Pressure | Rain* | Wind** | Luminosity | Snow |
|---|---|---|---|---|---|---|---|
| 1788369762 | 28.89° C | 29% | 856.6 hPa | - | - | - | - |
| 1788369637 | 28.89° C | 31% | 856.5 hPa | - | - | - | - |
| 1788369452 | 28.89° C | 32% | 856.5 hPa | - | - | - | - |
| 1788368562 | 28.89° C | 31% | 856.5 hPa | - | - | - | - |
| 1788367361 | 28.89° C | 32% | 856.5 hPa | - | - | - | - |
| 1788366983 | 28.89° C | 32% | 856.6 hPa | - | - | - | - |
| 1788366161 | 28.89° C | 32% | 856.6 hPa | - | - | - | - |
| 1788365061 | 28.33° C | 33% | 856.6 hPa | - | - | - | - |
| 1788364961 | 28.33° C | 33% | 856.6 hPa | - | - | - | - |
| 1788363873 | 28.33° C | 34% | 856.7 hPa | - | - | - | - |
| 1788363761 | 28.33° C | 34% | 856.7 hPa | - | - | - | - |
| 1788362799 | 27.78° C | 34% | 856.6 hPa | - | - | - | - |
| 1788362561 | 27.78° C | 34% | 856.6 hPa | - | - | - | - |
| 1788361695 | 27.22° C | 35% | 856.6 hPa | - | - | - | - |
| 1788361360 | 27.22° C | 35% | 856.6 hPa | - | - | - | - |
| 1788360160 | 27.22° C | 35% | 856.6 hPa | - | - | - | - |
| 1788358959 | 26.67° C | 36% | 856.7 hPa | - | - | - | - |
| 1788357896 | 26.11° C | 38% | 856.8 hPa | - | - | - | - |
| 1788357759 | 26.11° C | 38% | 856.8 hPa | - | - | - | - |
| 1788356664 | 25.56° C | 38% | 856.9 hPa | - | - | - | - |
| 1788356558 | 25.56° C | 38% | 856.9 hPa | - | - | - | - |
| 1788356283 | 25° C | 39% | 856.7 hPa | - | - | - | - |
| 1788355543 | 24.44° C | 42% | 856.8 hPa | - | - | - | - |
| 1788355358 | 25° C | 39% | 856.7 hPa | - | - | - | - |
| 1788354158 | 24.44° C | 42% | 856.8 hPa | - | - | - | - |
* Rain since midnight (hover to see other rain measurements)
** Current wind speed in m/s (hover to see current wind gust speed)